Time,TemperatureF,DewpointF,PressureIn,WindDirection,WindDirectionDegrees,WindSpeedMPH,WindSpeedGustMPH,Humidity,HourlyPrecipIn,Conditions,Clouds,dailyrainin,SoftwareType,DateUTC
2013-10-01 00:02:00,64.0,49.0,29.60,South,190,1.0,2.0,59,0.00,,,0.00,Meteo,2013-10-01 05:02:00,
2013-10-01 00:07:00,64.0,49.0,29.60,SSW,208,0.0,1.0,59,0.00,,,0.00,Meteo,2013-10-01 05:07:00,
2013-10-01 00:12:00,64.0,49.0,29.60,SSE,156,0.0,1.0,59,0.00,,,0.00,Meteo,2013-10-01 05:12:00,
2013-10-01 00:17:00,64.0,49.0,29.60,South,170,1.0,4.0,59,0.00,,,0.00,Meteo,2013-10-01 05:17:00,
2013-10-01 00:22:00,64.0,49.0,29.59,SSE,164,0.0,1.0,59,0.00,,,0.00,Meteo,2013-10-01 05:22:00,
2013-10-01 00:27:00,64.0,50.0,29.59,South,183,0.0,1.0,60,0.00,,,0.00,Meteo,2013-10-01 05:27:00,
2013-10-01 00:32:00,64.0,50.0,29.59,SE,130,1.0,3.0,60,0.00,,,0.00,Meteo,2013-10-01 05:32:00,
2013-10-01 00:37:00,64.0,50.0,29.59,SSE,161,0.0,1.0,60,0.00,,,0.00,Meteo,2013-10-01 05:37:00,
2013-10-01 00:42:00,64.0,50.0,29.59,SE,134,0.0,1.0,61,0.00,,,0.00,Meteo,2013-10-01 05:42:00,
2013-10-01 00:47:00,64.0,50.0,29.59,SSE,168,0.0,1.0,61,0.00,,,0.00,Meteo,2013-10-01 05:47:00,
2013-10-01 00:52:00,64.0,50.0,29.58,SSE,166,0.0,1.0,61,0.00,,,0.00,Meteo,2013-10-01 05:52:00,
2013-10-01 00:57:00,64.0,50.0,29.58,South,181,0.0,3.0,61,0.00,,,0.00,Meteo,2013-10-01 05:57:00,
2013-10-01 01:02:00,64.0,50.0,29.58,South,184,0.0,2.0,61,0.00,,,0.00,Meteo,2013-10-01 06:02:00,
2013-10-01 01:07:00,64.0,50.0,29.58,South,175,0.0,3.0,61,0.00,,,0.00,Meteo,2013-10-01 06:07:00,
2013-10-01 01:12:00,63.0,49.0,29.58,South,175,0.0,1.0,61,0.00,,,0.00,Meteo,2013-10-01 06:12:00,
2013-10-01 01:17:00,63.0,50.0,29.57,South,175,0.0,1.0,62,0.00,,,0.00,Meteo,2013-10-01 06:17:00,
2013-10-01 01:22:00,63.0,50.0,29.58,SSW,203,0.0,2.0,62,0.00,,,0.00,Meteo,2013-10-01 06:22:00,
2013-10-01 01:27:00,63.0,50.0,29.57,SSE,160,0.0,2.0,62,0.00,,,0.00,Meteo,2013-10-01 06:27:00,
2013-10-01 01:32:00,63.0,50.0,29.58,South,182,0.0,2.0,62,0.00,,,0.00,Meteo,2013-10-01 06:32:00,
2013-10-01 01:37:00,63.0,50.0,29.58,SSE,160,0.0,3.0,62,0.00,,,0.00,Meteo,2013-10-01 06:37:00,
2013-10-01 01:42:00,63.0,50.0,29.58,South,173,1.0,3.0,62,0.00,,,0.00,Meteo,2013-10-01 06:42:00,
2013-10-01 01:47:00,63.0,50.0,29.57,SSE,155,0.0,1.0,63,0.00,,,0.00,Meteo,2013-10-01 06:47:00,
2013-10-01 01:52:00,63.0,50.0,29.57,North,0,0.0,0.0,63,0.00,,,0.00,Meteo,2013-10-01 06:52:00,
2013-10-01 01:57:00,63.0,50.0,29.57,South,174,0.0,1.0,63,0.00,,,0.00,Meteo,2013-10-01 06:57:00,
2013-10-01 02:02:00,63.0,50.0,29.57,SE,129,0.0,1.0,63,0.00,,,0.00,Meteo,2013-10-01 07:02:00,
2013-10-01 02:07:00,63.0,50.0,29.57,South,187,0.0,1.0,63,0.00,,,0.00,Meteo,2013-10-01 07:07:00,
2013-10-01 02:12:00,63.0,50.0,29.57,SW,220,1.0,2.0,63,0.00,,,0.00,Meteo,2013-10-01 07:12:00,
2013-10-01 02:18:00,63.0,50.0,29.57,North,0,0.0,0.0,63,0.00,,,0.00,Meteo,2013-10-01 07:18:00,
2013-10-01 02:23:00,63.0,50.0,29.57,SSE,155,1.0,3.0,63,0.00,,,0.00,Meteo,2013-10-01 07:23:00,
2013-10-01 02:28:00,63.0,50.0,29.57,South,174,0.0,1.0,63,0.00,,,0.00,Meteo,2013-10-01 07:28:00,
2013-10-01 02:33:00,63.0,50.0,29.57,SW,216,1.0,2.0,63,0.00,,,0.00,Meteo,2013-10-01 07:33:00,
2013-10-01 02:39:00,63.0,50.0,29.57,SSW,206,1.0,4.0,63,0.00,,,0.00,Meteo,2013-10-01 07:39:00,
2013-10-01 02:44:00,63.0,50.0,29.57,SSW,196,0.0,2.0,63,0.00,,,0.00,Meteo,2013-10-01 07:44:00,
2013-10-01 02:49:00,63.0,50.0,29.57,South,180,1.0,3.0,63,0.00,,,0.00,Meteo,2013-10-01 07:49:00,
2013-10-01 02:54:00,63.0,50.0,29.56,SSE,151,0.0,1.0,63,0.00,,,0.00,Meteo,2013-10-01 07:54:00,
2013-10-01 03:00:00,63.0,50.0,29.56,SE,146,1.0,3.0,63,0.00,,,0.00,Meteo,2013-10-01 08:00:00,
2013-10-01 03:06:00,63.0,51.0,29.56,SSE,158,0.0,1.0,64,0.00,,,0.00,Meteo,2013-10-01 08:06:00,
2013-10-01 03:12:00,63.0,51.0,29.56,SSW,202,1.0,3.0,64,0.00,,,0.00,Meteo,2013-10-01 08:12:00,
2013-10-01 03:17:00,63.0,50.0,29.55,SW,234,0.0,1.0,63,0.00,,,0.00,Meteo,2013-10-01 08:17:00,
2013-10-01 03:22:00,63.0,51.0,29.55,South,181,1.0,4.0,64,0.00,,,0.00,Meteo,2013-10-01 08:22:00,
2013-10-01 03:28:00,63.0,51.0,29.55,SSE,167,1.0,3.0,64,0.00,,,0.00,Meteo,2013-10-01 08:28:00,
2013-10-01 03:33:00,63.0,51.0,29.55,SSW,199,1.0,3.0,64,0.00,,,0.00,Meteo,2013-10-01 08:33:00,
2013-10-01 03:38:00,63.0,51.0,29.55,SSE,166,1.0,2.0,64,0.00,,,0.00,Meteo,2013-10-01 08:38:00,
2013-10-01 03:44:00,63.0,51.0,29.55,SSE,154,1.0,4.0,65,0.00,,,0.00,Meteo,2013-10-01 08:44:00,
2013-10-01 03:49:00,63.0,51.0,29.55,SSW,198,0.0,2.0,65,0.00,,,0.00,Meteo,2013-10-01 08:49:00,
2013-10-01 03:54:00,63.0,51.0,29.55,SW,222,0.0,1.0,64,0.00,,,0.00,Meteo,2013-10-01 08:54:00,
2013-10-01 03:59:00,63.0,51.0,29.55,SW,225,0.0,1.0,65,0.00,,,0.00,Meteo,2013-10-01 08:59:00,
2013-10-01 04:04:00,63.0,51.0,29.55,SW,214,1.0,3.0,65,0.00,,,0.00,Meteo,2013-10-01 09:04:00,
2013-10-01 04:09:00,63.0,51.0,29.55,WSW,244,0.0,1.0,65,0.00,,,0.00,Meteo,2013-10-01 09:09:00,
2013-10-01 04:14:00,62.0,50.0,29.54,ENE,59,0.0,1.0,65,0.00,,,0.00,Meteo,2013-10-01 09:14:00,
2013-10-01 04:19:00,62.0,50.0,29.55,SSE,156,1.0,5.0,65,0.00,,,0.00,Meteo,2013-10-01 09:19:00,
2013-10-01 04:24:00,62.0,51.0,29.54,WSW,243,0.0,1.0,66,0.00,,,0.00,Meteo,2013-10-01 09:24:00,
2013-10-01 04:29:00,62.0,50.0,29.54,SSW,209,0.0,2.0,65,0.00,,,0.00,Meteo,2013-10-01 09:29:00,
2013-10-01 04:34:00,62.0,51.0,29.54,SE,146,0.0,2.0,66,0.00,,,0.00,Meteo,2013-10-01 09:34:00,
2013-10-01 04:40:00,62.0,51.0,29.54,South,179,1.0,3.0,66,0.00,,,0.00,Meteo,2013-10-01 09:40:00,
2013-10-01 04:46:00,62.0,51.0,29.54,South,188,1.0,4.0,66,0.00,,,0.00,Meteo,2013-10-01 09:46:00,
2013-10-01 04:51:00,62.0,51.0,29.53,ESE,115,1.0,4.0,66,0.00,,,0.00,Meteo,2013-10-01 09:51:00,
2013-10-01 04:56:00,62.0,51.0,29.54,SSE,154,0.0,1.0,66,0.00,,,0.00,Meteo,2013-10-01 09:56:00,
2013-10-01 05:01:00,62.0,51.0,29.54,South,185,0.0,2.0,66,0.00,,,0.00,Meteo,2013-10-01 10:01:00,
2013-10-01 05:06:00,62.0,51.0,29.54,South,174,0.0,1.0,66,0.00,,,0.00,Meteo,2013-10-01 10:06:00,
2013-10-01 05:11:00,62.0,51.0,29.54,SSE,168,0.0,2.0,66,0.00,,,0.00,Meteo,2013-10-01 10:11:00,
2013-10-01 05:16:00,62.0,51.0,29.53,SSW,213,0.0,1.0,66,0.00,,,0.00,Meteo,2013-10-01 10:16:00,
2013-10-01 05:22:00,62.0,51.0,29.53,SW,231,0.0,1.0,66,0.00,,,0.00,Meteo,2013-10-01 10:22:00,
2013-10-01 05:27:00,62.0,51.0,29.54,SSE,159,1.0,5.0,67,0.00,,,0.00,Meteo,2013-10-01 10:27:00,
2013-10-01 05:33:00,62.0,51.0,29.55,SSW,208,1.0,3.0,67,0.00,,,0.00,Meteo,2013-10-01 10:33:00,
2013-10-01 05:38:00,62.0,51.0,29.55,South,176,0.0,2.0,67,0.00,,,0.00,Meteo,2013-10-01 10:38:00,
2013-10-01 05:43:00,62.0,51.0,29.55,SSW,196,1.0,4.0,66,0.00,,,0.00,Meteo,2013-10-01 10:43:00,
2013-10-01 05:49:00,62.0,51.0,29.55,SSW,201,0.0,2.0,67,0.00,,,0.00,Meteo,2013-10-01 10:49:00,
2013-10-01 05:54:00,62.0,51.0,29.55,South,189,1.0,2.0,67,0.00,,,0.00,Meteo,2013-10-01 10:54:00,
2013-10-01 05:59:00,62.0,51.0,29.55,North,0,0.0,0.0,67,0.00,,,0.00,Meteo,2013-10-01 10:59:00,
2013-10-01 06:05:00,62.0,51.0,29.55,South,187,0.0,1.0,67,0.00,,,0.00,Meteo,2013-10-01 11:05:00,
2013-10-01 06:10:00,62.0,51.0,29.55,SSW,209,0.0,1.0,68,0.00,,,0.00,Meteo,2013-10-01 11:10:00,
2013-10-01 06:15:00,62.0,51.0,29.55,North,0,0.0,0.0,68,0.00,,,0.00,Meteo,2013-10-01 11:15:00,
2013-10-01 06:21:00,62.0,51.0,29.55,South,179,0.0,1.0,68,0.00,,,0.00,Meteo,2013-10-01 11:21:00,
2013-10-01 06:26:00,62.0,51.0,29.56,SW,229,1.0,3.0,68,0.00,,,0.00,Meteo,2013-10-01 11:26:00,
2013-10-01 06:31:00,62.0,52.0,29.56,North,0,0.0,0.0,69,0.00,,,0.00,Meteo,2013-10-01 11:31:00,
2013-10-01 06:36:00,62.0,52.0,29.56,South,186,0.0,2.0,69,0.00,,,0.00,Meteo,2013-10-01 11:36:00,
2013-10-01 06:42:00,62.0,52.0,29.56,SSE,150,0.0,1.0,69,0.00,,,0.00,Meteo,2013-10-01 11:42:00,
2013-10-01 06:47:00,61.0,51.0,29.56,SSE,152,0.0,1.0,70,0.00,,,0.00,Meteo,2013-10-01 11:47:00,
2013-10-01 06:53:00,61.0,52.0,29.56,SW,223,0.0,1.0,71,0.00,,,0.00,Meteo,2013-10-01 11:53:00,
2013-10-01 06:58:00,61.0,52.0,29.55,SSE,168,0.0,2.0,71,0.00,,,0.00,Meteo,2013-10-01 11:58:00,
2013-10-01 07:03:00,61.0,52.0,29.55,SSE,152,0.0,1.0,72,0.00,,,0.00,Meteo,2013-10-01 12:03:00,
2013-10-01 07:08:00,61.0,52.0,29.55,North,0,0.0,0.0,72,0.00,,,0.00,Meteo,2013-10-01 12:08:00,
2013-10-01 07:13:00,61.0,52.0,29.55,North,0,0.0,0.0,72,0.00,,,0.00,Meteo,2013-10-01 12:13:00,
2013-10-01 07:18:00,61.0,52.0,29.55,SSW,204,0.0,1.0,72,0.00,,,0.00,Meteo,2013-10-01 12:18:00,
2013-10-01 07:23:00,61.0,52.0,29.55,North,0,0.0,0.0,72,0.00,,,0.00,Meteo,2013-10-01 12:23:00,
2013-10-01 07:28:00,61.0,52.0,29.56,North,0,0.0,0.0,73,0.00,,,0.00,Meteo,2013-10-01 12:28:00,
2013-10-01 07:33:00,60.0,51.0,29.57,SSW,206,0.0,1.0,73,0.00,,,0.00,Meteo,2013-10-01 12:33:00,
2013-10-01 07:38:00,61.0,52.0,29.57,South,172,0.0,1.0,73,0.00,,,0.00,Meteo,2013-10-01 12:38:00,
2013-10-01 07:43:00,61.0,52.0,29.56,SW,216,0.0,1.0,73,0.00,,,0.00,Meteo,2013-10-01 12:43:00,
2013-10-01 07:49:00,61.0,52.0,29.56,SW,218,0.0,2.0,73,0.00,,,0.00,Meteo,2013-10-01 12:49:00,
2013-10-01 07:54:00,61.0,52.0,29.57,SW,222,0.0,2.0,73,0.00,,,0.00,Meteo,2013-10-01 12:54:00,
2013-10-01 07:59:00,61.0,52.0,29.57,SE,142,0.0,1.0,72,0.00,,,0.00,Meteo,2013-10-01 12:59:00,
2013-10-01 08:04:00,62.0,53.0,29.57,SSE,159,1.0,2.0,72,0.00,,,0.00,Meteo,2013-10-01 13:04:00,
2013-10-01 08:09:00,62.0,53.0,29.57,NE,52,0.0,1.0,72,0.00,,,0.00,Meteo,2013-10-01 13:09:00,
2013-10-01 08:15:00,62.0,53.0,29.57,SSW,211,1.0,4.0,71,0.00,,,0.00,Meteo,2013-10-01 13:15:00,
2013-10-01 08:20:00,62.0,53.0,29.57,SW,215,0.0,1.0,71,0.00,,,0.00,Meteo,2013-10-01 13:20:00,
2013-10-01 08:26:00,63.0,53.0,29.57,WSW,237,2.0,6.0,70,0.00,,,0.00,Meteo,2013-10-01 13:26:00,
2013-10-01 08:32:00,63.0,53.0,29.58,SW,223,2.0,5.0,70,0.00,,,0.00,Meteo,2013-10-01 13:32:00,
2013-10-01 08:38:00,64.0,53.0,29.57,SE,135,1.0,4.0,68,0.00,,,0.00,Meteo,2013-10-01 13:38:00,
2013-10-01 08:44:00,64.0,53.0,29.58,SSW,193,1.0,3.0,68,0.00,,,0.00,Meteo,2013-10-01 13:44:00,
2013-10-01 08:51:00,65.0,54.0,29.58,SSE,155,1.0,2.0,68,0.00,,,0.00,Meteo,2013-10-01 13:51:00,
2013-10-01 08:56:00,65.0,54.0,29.58,SSE,166,3.0,5.0,67,0.00,,,0.00,Meteo,2013-10-01 13:56:00,
2013-10-01 09:01:00,66.0,55.0,29.58,South,176,3.0,8.0,67,0.00,,,0.00,Meteo,2013-10-01 14:01:00,
2013-10-01 09:07:00,66.0,54.0,29.59,WSW,250,1.0,3.0,66,0.00,,,0.00,Meteo,2013-10-01 14:07:00,
2013-10-01 09:12:00,67.0,55.0,29.59,SW,220,1.0,3.0,65,0.00,,,0.00,Meteo,2013-10-01 14:12:00,
2013-10-01 09:17:00,67.0,55.0,29.60,SSW,202,0.0,4.0,65,0.00,,,0.00,Meteo,2013-10-01 14:17:00,
2013-10-01 09:22:00,67.0,55.0,29.60,SW,220,1.0,2.0,65,0.00,,,0.00,Meteo,2013-10-01 14:22:00,
2013-10-01 09:28:00,67.0,55.0,29.60,West,270,1.0,2.0,65,0.00,,,0.00,Meteo,2013-10-01 14:28:00,
2013-10-01 09:33:00,67.0,55.0,29.60,SW,215,1.0,2.0,66,0.00,,,0.00,Meteo,2013-10-01 14:33:00,
2013-10-01 09:39:00,66.0,54.0,29.61,WSW,245,1.0,3.0,66,0.00,,,0.00,Meteo,2013-10-01 14:39:00,
2013-10-01 09:44:00,67.0,55.0,29.62,South,174,0.0,3.0,66,0.00,,,0.00,Meteo,2013-10-01 14:44:00,
2013-10-01 09:49:00,67.0,55.0,29.62,SW,232,1.0,3.0,66,0.00,,,0.00,Meteo,2013-10-01 14:49:00,
2013-10-01 09:54:00,68.0,56.0,29.62,SW,221,1.0,2.0,65,0.00,,,0.00,Meteo,2013-10-01 14:54:00,
2013-10-01 09:59:00,68.0,55.0,29.63,WSW,239,3.0,6.0,64,0.00,,,0.00,Meteo,2013-10-01 14:59:00,
2013-10-01 10:04:00,69.0,56.0,29.63,WNW,293,2.0,4.0,63,0.00,,,0.00,Meteo,2013-10-01 15:04:00,
2013-10-01 10:09:00,69.0,56.0,29.63,WSW,258,2.0,6.0,63,0.00,,,0.00,Meteo,2013-10-01 15:09:00,
2013-10-01 10:14:00,69.0,55.0,29.63,West,265,4.0,7.0,62,0.00,,,0.00,Meteo,2013-10-01 15:14:00,
2013-10-01 10:19:00,69.0,55.0,29.63,NNE,21,0.0,5.0,61,0.00,,,0.00,Meteo,2013-10-01 15:19:00,
2013-10-01 10:25:00,70.0,56.0,29.64,West,269,1.0,5.0,61,0.00,,,0.00,Meteo,2013-10-01 15:25:00,
2013-10-01 10:30:00,70.0,55.0,29.64,NW,325,2.0,5.0,60,0.00,,,0.00,Meteo,2013-10-01 15:30:00,
2013-10-01 10:36:00,70.0,55.0,29.65,WNW,292,3.0,5.0,59,0.00,,,0.00,Meteo,2013-10-01 15:36:00,
2013-10-01 10:41:00,70.0,55.0,29.65,WNW,298,2.0,8.0,59,0.00,,,0.00,Meteo,2013-10-01 15:41:00,
2013-10-01 10:46:00,71.0,55.0,29.66,NW,307,2.0,3.0,58,0.00,,,0.00,Meteo,2013-10-01 15:46:00,
2013-10-01 10:51:00,71.0,54.0,29.66,NW,317,3.0,6.0,55,0.00,,,0.00,Meteo,2013-10-01 15:51:00,
2013-10-01 10:56:00,70.0,52.0,29.66,NW,326,1.0,4.0,53,0.00,,,0.00,Meteo,2013-10-01 15:56:00,
2013-10-01 11:01:00,70.0,52.0,29.66,WNW,303,3.0,7.0,53,0.00,,,0.00,Meteo,2013-10-01 16:01:00,
2013-10-01 11:07:00,70.0,53.0,29.66,West,259,0.0,2.0,54,0.00,,,0.00,Meteo,2013-10-01 16:07:00,
2013-10-01 11:12:00,71.0,54.0,29.66,SW,225,2.0,4.0,54,0.00,,,0.00,Meteo,2013-10-01 16:12:00,
2013-10-01 11:18:00,71.0,52.0,29.66,WSW,252,1.0,2.0,51,0.00,,,0.00,Meteo,2013-10-01 16:18:00,
2013-10-01 11:23:00,72.0,52.0,29.67,NW,319,2.0,5.0,49,0.00,,,0.00,Meteo,2013-10-01 16:23:00,
2013-10-01 11:28:00,72.0,51.0,29.67,NNW,328,4.0,10.0,47,0.00,,,0.00,Meteo,2013-10-01 16:28:00,
2013-10-01 11:32:00,72.0,50.0,29.68,WNW,298,2.0,4.0,46,0.00,,,0.00,Meteo,2013-10-01 16:32:00,
2013-10-01 11:38:00,72.0,50.0,29.68,NW,307,3.0,5.0,46,0.00,,,0.00,Meteo,2013-10-01 16:38:00,
2013-10-01 11:43:00,72.0,49.0,29.68,WNW,300,4.0,6.0,44,0.00,,,0.00,Meteo,2013-10-01 16:43:00,
2013-10-01 11:49:00,72.0,48.0,29.68,NW,313,1.0,2.0,43,0.00,,,0.00,Meteo,2013-10-01 16:49:00,
2013-10-01 11:54:00,73.0,49.0,29.68,NW,313,1.0,2.0,43,0.00,,,0.00,Meteo,2013-10-01 16:54:00,
2013-10-01 11:59:00,73.0,47.0,29.68,NW,321,1.0,4.0,39,0.00,,,0.00,Meteo,2013-10-01 16:59:00,
2013-10-01 12:05:00,73.0,46.0,29.68,SSW,206,3.0,6.0,38,0.00,,,0.00,Meteo,2013-10-01 17:05:00,
2013-10-01 12:10:00,73.0,44.0,29.68,WSW,251,4.0,10.0,35,0.00,,,0.00,Meteo,2013-10-01 17:10:00,
2013-10-01 12:16:00,73.0,41.0,29.68,WSW,256,1.0,5.0,32,0.00,,,0.00,Meteo,2013-10-01 17:16:00,
2013-10-01 12:22:00,73.0,41.0,29.68,WNW,293,3.0,8.0,31,0.00,,,0.00,Meteo,2013-10-01 17:22:00,
2013-10-01 12:28:00,73.0,42.0,29.68,West,281,3.0,6.0,33,0.00,,,0.00,Meteo,2013-10-01 17:28:00,
2013-10-01 12:33:00,73.0,44.0,29.68,NW,308,1.0,7.0,35,0.00,,,0.00,Meteo,2013-10-01 17:33:00,
2013-10-01 12:38:00,73.0,42.0,29.68,WNW,289,3.0,6.0,33,0.00,,,0.00,Meteo,2013-10-01 17:38:00,
2013-10-01 12:44:00,73.0,42.0,29.68,West,261,2.0,7.0,33,0.00,,,0.00,Meteo,2013-10-01 17:44:00,
2013-10-01 12:49:00,74.0,41.0,29.68,WNW,288,3.0,6.0,31,0.00,,,0.00,Meteo,2013-10-01 17:49:00,
2013-10-01 12:54:00,74.0,41.0,29.69,SSW,199,1.0,5.0,31,0.00,,,0.00,Meteo,2013-10-01 17:54:00,
2013-10-01 12:59:00,74.0,41.0,29.68,NW,325,2.0,4.0,31,0.00,,,0.00,Meteo,2013-10-01 17:59:00,
2013-10-01 13:05:00,74.0,42.0,29.68,WSW,253,2.0,4.0,32,0.00,,,0.00,Meteo,2013-10-01 18:05:00,
2013-10-01 13:11:00,74.0,41.0,29.68,WSW,251,3.0,5.0,30,0.00,,,0.00,Meteo,2013-10-01 18:11:00,
2013-10-01 13:16:00,75.0,41.0,29.68,SSE,153,2.0,6.0,29,0.00,,,0.00,Meteo,2013-10-01 18:16:00,
2013-10-01 13:21:00,75.0,41.0,29.68,SW,216,4.0,13.0,29,0.00,,,0.00,Meteo,2013-10-01 18:21:00,
2013-10-01 13:26:00,75.0,42.0,29.68,WSW,239,1.0,3.0,31,0.00,,,0.00,Meteo,2013-10-01 18:26:00,
2013-10-01 13:32:00,75.0,41.0,29.68,West,274,1.0,5.0,30,0.00,,,0.00,Meteo,2013-10-01 18:32:00,
2013-10-01 13:37:00,75.0,42.0,29.68,SSW,212,2.0,4.0,31,0.00,,,0.00,Meteo,2013-10-01 18:37:00,
2013-10-01 13:42:00,75.0,42.0,29.68,South,190,3.0,7.0,31,0.00,,,0.00,Meteo,2013-10-01 18:42:00,
2013-10-01 13:47:00,76.0,40.0,29.68,WSW,241,1.0,7.0,27,0.00,,,0.00,Meteo,2013-10-01 18:47:00,
2013-10-01 13:52:00,75.0,39.0,29.68,West,269,4.0,8.0,27,0.00,,,0.00,Meteo,2013-10-01 18:52:00,
2013-10-01 13:57:00,75.0,38.0,29.68,SSW,194,4.0,6.0,26,0.00,,,0.00,Meteo,2013-10-01 18:57:00,
2013-10-01 14:02:00,76.0,40.0,29.68,WSW,254,2.0,7.0,27,0.00,,,0.00,Meteo,2013-10-01 19:02:00,
2013-10-01 14:07:00,76.0,40.0,29.68,WSW,250,3.0,7.0,27,0.00,,,0.00,Meteo,2013-10-01 19:07:00,
2013-10-01 14:12:00,76.0,40.0,29.68,SW,215,4.0,9.0,27,0.00,,,0.00,Meteo,2013-10-01 19:12:00,
2013-10-01 14:17:00,76.0,38.0,29.69,West,279,3.0,7.0,25,0.00,,,0.00,Meteo,2013-10-01 19:17:00,
2013-10-01 14:23:00,76.0,39.0,29.69,WNW,289,4.0,10.0,26,0.00,,,0.00,Meteo,2013-10-01 19:23:00,
2013-10-01 14:28:00,75.0,37.0,29.69,SW,223,3.0,8.0,25,0.00,,,0.00,Meteo,2013-10-01 19:28:00,
2013-10-01 14:33:00,75.0,37.0,29.69,South,190,1.0,8.0,25,0.00,,,0.00,Meteo,2013-10-01 19:33:00,
2013-10-01 14:38:00,76.0,37.0,29.69,West,259,3.0,7.0,24,0.00,,,0.00,Meteo,2013-10-01 19:38:00,
2013-10-01 14:43:00,76.0,38.0,29.69,NW,313,1.0,3.0,25,0.00,,,0.00,Meteo,2013-10-01 19:43:00,
2013-10-01 14:49:00,76.0,38.0,29.69,SW,218,2.0,5.0,25,0.00,,,0.00,Meteo,2013-10-01 19:49:00,
2013-10-01 14:54:00,76.0,37.0,29.70,SW,220,4.0,10.0,24,0.00,,,0.00,Meteo,2013-10-01 19:54:00,
2013-10-01 14:59:00,76.0,37.0,29.70,West,273,3.0,5.0,24,0.00,,,0.00,Meteo,2013-10-01 19:59:00,
2013-10-01 15:04:00,76.0,34.0,29.70,West,277,4.0,9.0,22,0.00,,,0.00,Meteo,2013-10-01 20:04:00,
2013-10-01 15:09:00,76.0,36.0,29.70,SSW,212,4.0,10.0,23,0.00,,,0.00,Meteo,2013-10-01 20:09:00,
2013-10-01 15:14:00,76.0,37.0,29.70,SSW,209,3.0,10.0,24,0.00,,,0.00,Meteo,2013-10-01 20:14:00,
2013-10-01 15:19:00,75.0,36.0,29.70,WNW,291,2.0,6.0,24,0.00,,,0.00,Meteo,2013-10-01 20:19:00,
2013-10-01 15:24:00,75.0,36.0,29.70,NW,318,1.0,5.0,24,0.00,,,0.00,Meteo,2013-10-01 20:24:00,
2013-10-01 15:29:00,76.0,37.0,29.70,SW,228,2.0,6.0,24,0.00,,,0.00,Meteo,2013-10-01 20:29:00,
2013-10-01 15:34:00,75.0,35.0,29.70,West,279,3.0,8.0,23,0.00,,,0.00,Meteo,2013-10-01 20:34:00,
2013-10-01 15:39:00,75.0,35.0,29.70,South,178,2.0,5.0,23,0.00,,,0.00,Meteo,2013-10-01 20:39:00,
2013-10-01 15:45:00,75.0,36.0,29.70,WNW,283,1.0,4.0,24,0.00,,,0.00,Meteo,2013-10-01 20:45:00,
2013-10-01 15:50:00,75.0,37.0,29.70,South,190,1.0,2.0,25,0.00,,,0.00,Meteo,2013-10-01 20:50:00,
2013-10-01 15:55:00,75.0,37.0,29.70,WSW,248,4.0,7.0,25,0.00,,,0.00,Meteo,2013-10-01 20:55:00,
2013-10-01 16:00:00,75.0,36.0,29.70,WSW,257,1.0,4.0,24,0.00,,,0.00,Meteo,2013-10-01 21:00:00,
2013-10-01 16:05:00,75.0,37.0,29.71,SW,222,2.0,5.0,25,0.00,,,0.00,Meteo,2013-10-01 21:05:00,
2013-10-01 16:11:00,75.0,36.0,29.71,WSW,249,3.0,6.0,24,0.00,,,0.00,Meteo,2013-10-01 21:11:00,
2013-10-01 16:16:00,75.0,37.0,29.71,SSW,206,4.0,9.0,25,0.00,,,0.00,Meteo,2013-10-01 21:16:00,
2013-10-01 16:21:00,75.0,36.0,29.71,West,278,2.0,6.0,24,0.00,,,0.00,Meteo,2013-10-01 21:21:00,
2013-10-01 16:26:00,75.0,36.0,29.71,SSW,206,2.0,6.0,24,0.00,,,0.00,Meteo,2013-10-01 21:26:00,
2013-10-01 16:32:00,74.0,37.0,29.72,NW,309,1.0,2.0,26,0.00,,,0.00,Meteo,2013-10-01 21:32:00,
2013-10-01 16:37:00,74.0,38.0,29.72,SSW,194,1.0,3.0,27,0.00,,,0.00,Meteo,2013-10-01 21:37:00,
2013-10-01 16:43:00,74.0,38.0,29.72,WNW,284,2.0,6.0,27,0.00,,,0.00,Meteo,2013-10-01 21:43:00,
2013-10-01 16:49:00,74.0,38.0,29.72,SW,214,2.0,7.0,27,0.00,,,0.00,Meteo,2013-10-01 21:49:00,
2013-10-01 16:54:00,73.0,37.0,29.72,South,180,2.0,8.0,27,0.00,,,0.00,Meteo,2013-10-01 21:54:00,
2013-10-01 16:59:00,73.0,37.0,29.73,SSE,165,1.0,2.0,27,0.00,,,0.00,Meteo,2013-10-01 21:59:00,
2013-10-01 17:04:00,73.0,37.0,29.73,SW,216,3.0,10.0,27,0.00,,,0.00,Meteo,2013-10-01 22:04:00,
2013-10-01 17:09:00,72.0,36.0,29.73,WSW,239,3.0,6.0,27,0.00,,,0.00,Meteo,2013-10-01 22:09:00,
2013-10-01 17:15:00,72.0,36.0,29.73,SW,224,3.0,6.0,27,0.00,,,0.00,Meteo,2013-10-01 22:15:00,
2013-10-01 17:20:00,72.0,36.0,29.73,WSW,240,1.0,3.0,27,0.00,,,0.00,Meteo,2013-10-01 22:20:00,
2013-10-01 17:26:00,72.0,36.0,29.74,West,261,1.0,5.0,27,0.00,,,0.00,Meteo,2013-10-01 22:26:00,
2013-10-01 17:31:00,71.0,35.0,29.74,WSW,241,2.0,3.0,27,0.00,,,0.00,Meteo,2013-10-01 22:31:00,
2013-10-01 17:37:00,71.0,35.0,29.74,South,185,2.0,4.0,27,0.00,,,0.00,Meteo,2013-10-01 22:37:00,
2013-10-01 17:43:00,71.0,37.0,29.74,SSW,206,4.0,10.0,29,0.00,,,0.00,Meteo,2013-10-01 22:43:00,
2013-10-01 17:49:00,70.0,37.0,29.75,WSW,243,2.0,4.0,30,0.00,,,0.00,Meteo,2013-10-01 22:49:00,
2013-10-01 17:54:00,70.0,36.0,29.75,SSW,209,1.0,3.0,29,0.00,,,0.00,Meteo,2013-10-01 22:54:00,
2013-10-01 17:59:00,70.0,35.0,29.75,South,172,2.0,5.0,28,0.00,,,0.00,Meteo,2013-10-01 22:59:00,
2013-10-01 18:04:00,70.0,35.0,29.75,South,182,1.0,5.0,28,0.00,,,0.00,Meteo,2013-10-01 23:04:00,
2013-10-01 18:10:00,69.0,35.0,29.75,SW,225,1.0,4.0,29,0.00,,,0.00,Meteo,2013-10-01 23:10:00,
2013-10-01 18:15:00,69.0,35.0,29.75,SSW,197,0.0,1.0,29,0.00,,,0.00,Meteo,2013-10-01 23:15:00,
2013-10-01 18:20:00,69.0,36.0,29.75,SSW,195,1.0,3.0,30,0.00,,,0.00,Meteo,2013-10-01 23:20:00,
2013-10-01 18:25:00,68.0,35.0,29.76,South,190,2.0,4.0,30,0.00,,,0.00,Meteo,2013-10-01 23:25:00,
2013-10-01 18:27:00,68.0,35.0,29.76,SW,233,1.0,2.0,30,0.00,,,0.00,Meteo,2013-10-01 23:27:00,
2013-10-01 18:32:00,68.0,36.0,29.76,SW,220,2.0,3.0,31,0.00,,,0.00,Meteo,2013-10-01 23:32:00,
2013-10-01 18:33:00,68.0,36.0,29.76,SW,215,1.0,3.0,31,0.00,,,0.00,Meteo,2013-10-01 23:33:00,
2013-10-01 18:35:00,68.0,37.0,29.76,SW,221,0.0,2.0,32,0.00,,,0.00,Meteo,2013-10-01 23:35:00,
2013-10-01 18:40:00,67.0,35.0,29.76,South,184,1.0,2.0,31,0.00,,,0.00,Meteo,2013-10-01 23:40:00,
2013-10-01 18:45:00,67.0,36.0,29.76,South,188,2.0,3.0,32,0.00,,,0.00,Meteo,2013-10-01 23:45:00,
2013-10-01 18:50:00,67.0,36.0,29.76,SSW,195,0.0,2.0,32,0.00,,,0.00,Meteo,2013-10-01 23:50:00,
2013-10-01 18:55:00,66.0,35.0,29.77,SSW,203,0.0,1.0,32,0.00,,,0.00,Meteo,2013-10-01 23:55:00,
2013-10-01 19:00:00,66.0,36.0,29.77,South,176,2.0,5.0,33,0.00,,,0.00,Meteo,2013-10-02 00:00:00,
2013-10-01 19:06:00,66.0,36.0,29.77,WSW,253,1.0,3.0,33,0.00,,,0.00,Meteo,2013-10-02 00:06:00,
2013-10-01 19:11:00,65.0,35.0,29.78,SW,228,1.0,3.0,33,0.00,,,0.00,Meteo,2013-10-02 00:11:00,
2013-10-01 19:16:00,65.0,35.0,29.78,SW,222,1.0,4.0,33,0.00,,,0.00,Meteo,2013-10-02 00:16:00,
2013-10-01 19:21:00,65.0,35.0,29.78,South,184,2.0,4.0,33,0.00,,,0.00,Meteo,2013-10-02 00:21:00,
2013-10-01 19:24:00,65.0,35.0,29.78,WSW,243,1.0,6.0,33,0.00,,,0.00,Meteo,2013-10-02 00:24:00,
2013-10-01 19:29:00,65.0,35.0,29.78,SW,220,1.0,2.0,33,0.00,,,0.00,Meteo,2013-10-02 00:29:00,
2013-10-01 19:34:00,65.0,35.0,29.78,SSW,193,1.0,3.0,33,0.00,,,0.00,Meteo,2013-10-02 00:34:00,
2013-10-01 19:39:00,64.0,34.0,29.78,SSW,207,2.0,5.0,33,0.00,,,0.00,Meteo,2013-10-02 00:39:00,
2013-10-01 19:44:00,64.0,34.0,29.79,SSW,195,1.0,2.0,33,0.00,,,0.00,Meteo,2013-10-02 00:44:00,
2013-10-01 19:49:00,64.0,34.0,29.79,South,179,1.0,3.0,33,0.00,,,0.00,Meteo,2013-10-02 00:49:00,
2013-10-01 19:55:00,64.0,35.0,29.79,SSW,199,0.0,1.0,34,0.00,,,0.00,Meteo,2013-10-02 00:55:00,
2013-10-01 20:00:00,64.0,36.0,29.80,South,181,1.0,2.0,35,0.00,,,0.00,Meteo,2013-10-02 01:00:00,
2013-10-01 20:05:00,63.0,35.0,29.80,SSW,213,1.0,6.0,35,0.00,,,0.00,Meteo,2013-10-02 01:05:00,
2013-10-01 20:10:00,63.0,35.0,29.80,SSE,148,1.0,3.0,35,0.00,,,0.00,Meteo,2013-10-02 01:10:00,
2013-10-01 20:15:00,63.0,36.0,29.80,SSW,199,2.0,4.0,36,0.00,,,0.00,Meteo,2013-10-02 01:15:00,
2013-10-01 20:20:00,63.0,36.0,29.81,SSE,167,2.0,4.0,36,0.00,,,0.00,Meteo,2013-10-02 01:20:00,
2013-10-01 20:25:00,62.0,35.0,29.81,SSW,199,1.0,4.0,36,0.00,,,0.00,Meteo,2013-10-02 01:25:00,
2013-10-01 20:30:00,62.0,35.0,29.81,SSW,193,1.0,3.0,37,0.00,,,0.00,Meteo,2013-10-02 01:30:00,
2013-10-01 20:35:00,62.0,35.0,29.81,SSW,211,1.0,2.0,37,0.00,,,0.00,Meteo,2013-10-02 01:35:00,
2013-10-01 20:40:00,62.0,36.0,29.81,SSW,213,1.0,2.0,38,0.00,,,0.00,Meteo,2013-10-02 01:40:00,
2013-10-01 20:45:00,62.0,36.0,29.81,SW,216,0.0,2.0,38,0.00,,,0.00,Meteo,2013-10-02 01:45:00,
2013-10-01 20:50:00,61.0,36.0,29.82,SSE,161,0.0,1.0,39,0.00,,,0.00,Meteo,2013-10-02 01:50:00,
2013-10-01 20:55:00,61.0,36.0,29.82,South,169,0.0,2.0,39,0.00,,,0.00,Meteo,2013-10-02 01:55:00,
2013-10-01 21:00:00,61.0,37.0,29.82,North,0,0.0,0.0,40,0.00,,,0.00,Meteo,2013-10-02 02:00:00,
2013-10-01 21:05:00,61.0,37.0,29.82,SSW,212,0.0,2.0,40,0.00,,,0.00,Meteo,2013-10-02 02:05:00,
2013-10-01 21:10:00,60.0,36.0,29.82,SW,229,1.0,1.0,40,0.00,,,0.00,Meteo,2013-10-02 02:10:00,
2013-10-01 21:15:00,60.0,36.0,29.82,SW,226,1.0,4.0,41,0.00,,,0.00,Meteo,2013-10-02 02:15:00,
2013-10-01 21:20:00,60.0,36.0,29.82,WSW,241,1.0,2.0,41,0.00,,,0.00,Meteo,2013-10-02 02:20:00,
2013-10-01 21:25:00,60.0,37.0,29.83,SSW,199,0.0,1.0,42,0.00,,,0.00,Meteo,2013-10-02 02:25:00,
2013-10-01 21:31:00,60.0,37.0,29.83,South,178,0.0,1.0,43,0.00,,,0.00,Meteo,2013-10-02 02:31:00,
2013-10-01 21:36:00,60.0,37.0,29.83,SSW,210,0.0,2.0,43,0.00,,,0.00,Meteo,2013-10-02 02:36:00,
2013-10-01 21:41:00,59.0,37.0,29.83,SW,230,0.0,1.0,43,0.00,,,0.00,Meteo,2013-10-02 02:41:00,
2013-10-01 21:46:00,59.0,37.0,29.83,South,170,1.0,2.0,44,0.00,,,0.00,Meteo,2013-10-02 02:46:00,
2013-10-01 21:51:00,59.0,37.0,29.83,SSW,209,0.0,1.0,44,0.00,,,0.00,Meteo,2013-10-02 02:51:00,
2013-10-01 21:56:00,59.0,38.0,29.83,SSW,208,1.0,3.0,45,0.00,,,0.00,Meteo,2013-10-02 02:56:00,
2013-10-01 22:01:00,59.0,38.0,29.83,North,0,0.0,0.0,45,0.00,,,0.00,Meteo,2013-10-02 03:01:00,
2013-10-01 22:06:00,59.0,38.0,29.83,SSW,195,0.0,1.0,45,0.00,,,0.00,Meteo,2013-10-02 03:06:00,
2013-10-01 22:11:00,58.0,37.0,29.84,SSW,198,1.0,2.0,45,0.00,,,0.00,Meteo,2013-10-02 03:11:00,
2013-10-01 22:16:00,58.0,37.0,29.84,South,181,0.0,1.0,46,0.00,,,0.00,Meteo,2013-10-02 03:16:00,
2013-10-01 22:21:00,58.0,37.0,29.84,SSE,163,1.0,2.0,45,0.00,,,0.00,Meteo,2013-10-02 03:21:00,
2013-10-01 22:26:00,58.0,37.0,29.84,SSW,201,1.0,2.0,46,0.00,,,0.00,Meteo,2013-10-02 03:26:00,
2013-10-01 22:31:00,58.0,37.0,29.84,SSE,164,0.0,1.0,46,0.00,,,0.00,Meteo,2013-10-02 03:31:00,
2013-10-01 22:36:00,58.0,37.0,29.85,South,186,1.0,4.0,46,0.00,,,0.00,Meteo,2013-10-02 03:36:00,
2013-10-01 22:41:00,58.0,37.0,29.85,SW,226,1.0,3.0,46,0.00,,,0.00,Meteo,2013-10-02 03:41:00,
2013-10-01 22:46:00,58.0,37.0,29.85,South,187,0.0,2.0,46,0.00,,,0.00,Meteo,2013-10-02 03:46:00,
2013-10-01 22:51:00,58.0,38.0,29.85,SW,214,1.0,3.0,47,0.00,,,0.00,Meteo,2013-10-02 03:51:00,
2013-10-01 22:56:00,58.0,38.0,29.85,WSW,242,1.0,2.0,47,0.00,,,0.00,Meteo,2013-10-02 03:56:00,
2013-10-01 23:01:00,58.0,38.0,29.86,SSW,206,1.0,3.0,47,0.00,,,0.00,Meteo,2013-10-02 04:01:00,
2013-10-01 23:02:00,58.0,38.0,29.86,South,191,0.0,1.0,47,0.00,,,0.00,Meteo,2013-10-02 04:02:00,
2013-10-01 23:06:00,58.0,38.0,29.86,SW,218,1.0,2.0,47,0.00,,,0.00,Meteo,2013-10-02 04:06:00,
2013-10-01 23:09:00,58.0,38.0,29.86,SW,221,1.0,3.0,47,0.00,,,0.00,Meteo,2013-10-02 04:09:00,
2013-10-01 23:13:00,58.0,38.0,29.86,SW,223,0.0,1.0,47,0.00,,,0.00,Meteo,2013-10-02 04:13:00,
2013-10-01 23:14:00,57.0,37.0,29.86,SW,215,0.0,2.0,47,0.00,,,0.00,Meteo,2013-10-02 04:14:00,
2013-10-01 23:19:00,57.0,38.0,29.86,WNW,303,1.0,3.0,48,0.00,,,0.00,Meteo,2013-10-02 04:19:00,
2013-10-01 23:24:00,57.0,38.0,29.86,SSW,208,1.0,2.0,48,0.00,,,0.00,Meteo,2013-10-02 04:24:00,
2013-10-01 23:29:00,57.0,38.0,29.86,SSW,199,0.0,1.0,48,0.00,,,0.00,Meteo,2013-10-02 04:29:00,
2013-10-01 23:34:00,57.0,38.0,29.86,SW,216,2.0,4.0,48,0.00,,,0.00,Meteo,2013-10-02 04:34:00,
2013-10-01 23:39:00,57.0,38.0,29.87,SW,222,0.0,2.0,48,0.00,,,0.00,Meteo,2013-10-02 04:39:00,
2013-10-01 23:44:00,57.0,38.0,29.87,SSW,206,0.0,1.0,48,0.00,,,0.00,Meteo,2013-10-02 04:44:00,
2013-10-01 23:49:00,57.0,38.0,29.87,SSW,212,1.0,2.0,49,0.00,,,0.00,Meteo,2013-10-02 04:49:00,
2013-10-01 23:54:00,56.0,37.0,29.88,SSW,197,1.0,2.0,49,0.00,,,0.00,Meteo,2013-10-02 04:54:00,
2013-10-01 23:59:00,56.0,38.0,29.88,North,0,0.0,0.0,50,0.00,,,0.00,Meteo,2013-10-02 04:59:00,